Location: Perryvale
(54.4667°N, 113.3833°W)
Time: 03:29:20
(UTC+00:00)

S-56A Canister/Altair - Pass Details

Date: 27 May 2024
Orbit: 637 x 2489 km, 38.9° (Epoch: 15 June)

Event Time Altitude Azimuth Distance (km) Brightness Sun altitude
Rises 10:09:02 0° 187° (S) 6,150 11.6 -6.9°
Reaches altitude 10° 10:15:56 10° 167° (SSE) 5,043 11.3 -6.3°
Maximum altitude 10:22:16 14° 140° (SE) 4,466 11.3 -5.7°
Drops below altitude 10° 10:28:02 10° 113° (ESE) 4,547 11.7 -5.2°
Sets 10:33:32 0° 92° (E) 5,190 12.4 -4.6°
